GW1714 Weather Reports


Display with metric or nautical units.
time (UTC)temp
F
wind
direction
speed
MPH
gust
MPH
rain 1hr
in
rain 24hr
in
rain mn
in
humidity
%
barometer
mb
20260502152154 56 185 1.0 2.0 0.00 0.00 0.00 55 1033.6
20260502151652 56 172 0.0 2.0 0.00 0.00 0.00 54 1033.3
20260502151149 57 33 2.0 3.0 0.00 0.00 0.00 56 1033.2
20260502150647 56 173 0.0 3.0 0.00 0.00 0.00 56 1033.2
20260502150143 57 11 1.0 3.0 0.00 0.00 0.00 56 1033.1
20260502140106 53 144 2.0 3.0 0.00 0.00 0.00 66 1033.5
20260502130532 51 140 0.0 3.0 0.00 0.00 0.00 71 1033.1
20260502123515 50 152 2.0 4.0 0.00 0.00 0.00 75 1032.9
20260502123011 50 148 1.0 3.0 0.00 0.00 0.00 74 1033.1
20260502122508 50 140 1.0 3.0 0.00 0.00 0.00 74 1033.0
20260502122005 51 18 0.0 3.0 0.00 0.00 0.00 77 1033.0
20260502121503 50 120 0.0 2.0 0.00 0.00 0.00 75 1033.0
20260502121000 50 154 2.0 2.0 0.00 0.00 0.00 75 1033.0
20260502120456 51 135 2.0 3.0 0.00 0.00 0.00 76 1033.2
20260502115450 50 127 0.0 2.0 0.00 0.00 0.00 73 1033.2
20260502114946 50 147 2.0 3.0 0.00 0.00 0.00 72 1032.4
20260502114443 50 131 0.0 2.0 0.00 0.00 0.00 74 1032.7
20260502113941 50 154 3.0 3.0 0.00 0.00 0.00 73 1032.5
20260502113438 50 146 3.0 3.0 0.00 0.00 0.00 73 1032.3
20260502112937 50 147 2.0 3.0 0.00 0.00 0.00 73 1032.5
20260502112434 50 150 2.0 3.0 0.00 0.00 0.00 74 1032.3
20260502111931 50 151 2.0 3.0 0.00 0.00 0.00 76 1032.3
20260502111428 51 157 0.0 2.0 0.00 0.00 0.00 74 1032.2
20260502110926 51 29 0.0 3.0 0.00 0.00 0.00 73 1031.9
20260502110423 50 71 0.0 3.0 0.00 0.00 0.00 72 1031.7
20260502105920 51 96 1.0 1.0 0.00 0.00 0.00 74 1031.9
20260502105417 50 82 0.0 1.0 0.00 0.00 0.00 73 1032.3
20260502104916 50 35 1.0 1.0 0.00 0.00 0.00 74 1032.1
20260502104412 50 99 0.0 2.0 0.00 0.00 0.00 73 1032.2
20260502103909 50 66 1.0 2.0 0.00 0.00 0.00 73 1032.2
20260502103407 50 97 0.0 2.0 0.00 0.00 0.00 73 1032.5
20260502102904 51 135 2.0 2.0 0.00 0.00 0.00 73 1032.6
20260502102400 51 102 1.0 2.0 0.00 0.00 0.00 72 1032.3
20260502101858 51 82 0.0 1.0 0.00 0.00 0.00 72 1032.4
20260502101356 51 131 0.0 2.0 0.00 0.00 0.00 71 1032.5
20260502100854 51 35 1.0 2.0 0.00 0.00 0.00 72 1032.4
20260502100353 51 105 1.0 2.0 0.00 0.00 0.00 72 1032.3
20260502091327 51 150 2.0 2.0 0.00 0.00 0.00 70 1031.9
20260502090825 51 90 1.0 2.0 0.00 0.00 0.00 70 1031.8
20260502090321 51 97 0.0 2.0 0.00 0.00 0.00 71 1032.3
20260502071216 53 154 2.0 3.0 0.00 0.00 0.00 65 1032.4
20260502070714 53 175 1.0 4.0 0.00 0.00 0.00 65 1032.3
20260502070212 53 148 2.0 3.0 0.00 0.00 0.00 65 1032.6
20260502065710 53 166 0.0 3.0 0.00 0.00 0.00 65 1032.5
20260502065208 54 151 2.0 2.0 0.00 0.00 0.00 64 1032.3
20260502064706 54 154 0.0 3.0 0.00 0.00 0.00 64 1032.8
20260502064203 54 145 0.0 3.0 0.00 0.00 0.00 64 1032.6
20260502063701 54 151 3.0 3.0 0.00 0.00 0.00 64 1032.6
20260502063158 54 145 0.0 2.0 0.00 0.00 0.00 65 1032.6
20260502062655 54 157 0.0 2.0 0.00 0.00 0.00 64 1032.5
20260502062153 55 114 0.0 1.0 0.00 0.00 0.00 62 1032.7
20260502061651 55 135 0.0 2.0 0.00 0.00 0.00 63 1032.7
20260502061148 55 145 0.0 2.0 0.00 0.00 0.00 62 1032.5
20260502060643 55 173 0.0 0.0 0.00 0.00 0.00 61 1032.6
20260502060140 55 144 3.0 3.0 0.00 0.00 0.00 62 1032.6
20260502055637 55 150 2.0 3.0 0.00 0.00 0.00 61 1032.3
20260502055135 55 165 1.0 3.0 0.00 0.00 0.00 61 1032.5
20260502054634 55 127 2.0 2.0 0.00 0.00 0.00 61 1032.4
20260502054131 55 168 0.0 3.0 0.00 0.00 0.00 60 1032.6
20260502053628 55 158 2.0 3.0 0.00 0.00 0.00 60 1032.4
20260502053125 55 154 3.0 3.0 0.00 0.00 0.00 61 1032.6
20260502052623 56 172 2.0 2.0 0.00 0.00 0.00 61 1032.5
20260502052121 56 166 2.0 3.0 0.00 0.00 0.00 60 1032.5
20260502051619 56 162 0.0 3.0 0.00 0.00 0.00 60 1032.7
20260502051117 56 147 2.0 3.0 0.00 0.00 0.00 60 1032.5
20260502050613 56 180 1.0 3.0 0.00 0.00 0.00 59 1032.5
20260502050110 56 165 0.0 3.0 0.00 0.00 0.00 59 1032.6
20260502045606 56 166 0.0 3.0 0.00 0.00 0.00 58 1032.6
20260502045104 56 180 0.0 3.0 0.00 0.00 0.00 58 1032.7
20260502044600 56 180 0.0 2.0 0.00 0.00 0.00 58 1032.6
20260502044057 56 154 2.0 2.0 0.00 0.00 0.00 58 1032.8
20260502043554 57 165 0.0 2.0 0.00 0.00 0.00 58 1032.7
20260502043050 57 109 1.0 1.0 0.00 0.00 0.00 58 1032.4
20260502042545 57 175 1.0 2.0 0.00 0.00 0.00 59 1032.3
20260502042043 57 172 0.0 2.0 0.00 0.00 0.00 58 1032.6
20260502041541 57 154 1.0 3.0 0.00 0.00 0.00 57 1032.8
20260502041038 57 180 0.0 4.0 0.00 0.00 0.00 57 1032.6
20260502040534 57 165 0.0 4.0 0.00 0.00 0.00 57 1032.5
20260502040031 57 180 2.0 3.0 0.00 0.00 0.00 58 1032.6
20260502035527 57 180 2.0 3.0 0.00 0.00 0.00 59 1032.5
20260502035025 57 172 2.0 4.0 0.00 0.00 0.00 58 1032.7
20260502034523 58 151 3.0 3.0 0.00 0.00 0.00 59 1032.7
20260502034021 58 186 1.0 3.0 0.00 0.00 0.00 58 1032.4
20260502033519 58 180 2.0 3.0 0.00 0.00 0.00 59 1032.6
20260502033016 58 144 4.0 4.0 0.00 0.00 0.00 59 1032.5
20260502032511 58 194 0.0 5.0 0.00 0.00 0.00 60 1032.6
20260502032009 58 185 1.0 3.0 0.00 0.00 0.00 61 1032.7
20260502031507 58 163 2.0 4.0 0.00 0.00 0.00 63 1032.5
20260502031004 58 168 1.0 5.0 0.00 0.00 0.00 64 1032.7
20260502030503 58 146 3.0 5.0 0.00 0.00 0.00 64 1032.6
20260502030000 58 180 0.0 4.0 0.00 0.00 0.00 64 1032.6
20260502025457 59 198 3.0 3.0 0.00 0.00 0.00 65 1032.5
20260502024955 59 152 3.0 3.0 0.00 0.00 0.00 65 1032.5
20260502024452 59 150 3.0 3.0 0.00 0.00 0.00 65 1032.4
20260502023951 59 154 0.0 2.0 0.00 0.00 0.00 65 1032.6
20260502023448 59 186 0.0 3.0 0.00 0.00 0.00 64 1032.3
20260502022945 59 192 0.0 3.0 0.00 0.00 0.00 63 1032.2
20260502022441 59 166 0.0 3.0 0.00 0.00 0.00 62 1032.4
20260502021938 59 172 0.0 2.0 0.00 0.00 0.00 62 1032.2
20260502021436 60 180 1.0 3.0 0.00 0.00 0.00 60 1032.3
20260502020933 60 172 0.0 3.0 0.00 0.00 0.00 58 1032.3
20260502020431 61 180 2.0 3.0 0.00 0.00 0.00 57 1032.1
20260502015927 61 163 2.0 3.0 0.00 0.00 0.00 56 1032.1
20260502015425 61 117 2.0 3.0 0.00 0.00 0.00 55 1031.9
20260502014921 61 151 1.0 2.0 0.00 0.00 0.00 54 1031.7
20260502014419 61 165 0.0 1.0 0.00 0.00 0.00 54 1031.6
20260502013915 62 140 0.0 2.0 0.00 0.00 0.00 53 1031.6
20260502013410 62 165 0.0 2.0 0.00 0.00 0.00 53 1031.6
20260502012907 62 165 0.0 1.0 0.00 0.00 0.00 53 1031.4
20260502012405 62 99 0.0 2.0 0.00 0.00 0.00 54 1031.2
20260502011902 62 18 1.0 3.0 0.00 0.00 0.00 55 1031.2
20260502011358 62 6 1.0 3.0 0.00 0.00 0.00 55 1031.1
20260502010855 62 50 3.0 4.0 0.00 0.00 0.00 54 1031.0
20260502010352 62 35 1.0 2.0 0.00 0.00 0.00 54 1031.1
20260502005849 62 35 1.0 3.0 0.00 0.00 0.00 54 1030.9
20260502005347 62 16 0.0 4.0 0.00 0.00 0.00 55 1030.9
20260502004844 62 6 1.0 2.0 0.00 0.00 0.00 55 1030.6
20260502004340 62 40 3.0 4.0 0.00 0.00 0.00 53 1030.6
20260502003838 62 15 2.0 3.0 0.00 0.00 0.00 52 1030.4
20260502003334 63 27 3.0 4.0 0.00 0.00 0.00 51 1030.1
20260502002831 63 57 2.0 6.0 0.00 0.00 0.00 51 1030.5
20260502002328 63 81 0.0 5.0 0.00 0.00 0.00 50 1030.3
20260502001825 63 62 4.0 7.0 0.00 0.00 0.00 50 1030.1
20260502001323 63 0 1.0 5.0 0.00 0.00 0.00 50 1030.3
20260502000820 63 38 5.0 7.0 0.00 0.00 0.00 49 1030.3
20260502000318 63 22 3.0 6.0 0.00 0.00 0.00 49 1030.1
20260501235814 63 30 2.0 5.0 0.00 0.00 0.00 50 1030.3
20260501235310 63 12 2.0 5.0 0.00 0.00 0.00 51 1030.2
20260501234805 64 59 3.0 5.0 0.00 0.00 0.00 49 1030.0
20260501234303 63 21 3.0 6.0 0.00 0.00 0.00 49 1030.0
20260501233801 64 23 4.0 5.0 0.00 0.00 0.00 48 1029.5
20260501233258 64 4 3.0 4.0 0.00 0.00 0.00 49 1029.5
20260501232754 64 19 3.0 4.0 0.00 0.00 0.00 51 1029.4
20260501232251 64 26 2.0 4.0 0.00 0.00 0.00 51 1029.7
20260501231748 64 15 3.0 5.0 0.00 0.00 0.00 50 1029.6
20260501231247 64 52 2.0 3.0 0.00 0.00 0.00 51 1029.6
20260501230745 65 32 0.0 2.0 0.00 0.00 0.00 50 1030.0
20260501230243 64 57 2.0 3.0 0.00 0.00 0.00 49 1029.8
20260501225740 65 21 0.0 5.0 0.00 0.00 0.00 47 1029.6
20260501225238 65 23 1.0 4.0 0.00 0.00 0.00 49 1029.5
20260501224733 65 37 2.0 4.0 0.00 0.00 0.00 47 1029.5
20260501224231 65 26 2.0 5.0 0.00 0.00 0.00 46 1029.6
20260501223727 65 37 0.0 8.0 0.00 0.00 0.00 44 1029.4
20260501223224 66 36 3.0 5.0 0.00 0.00 0.00 45 1029.5
20260501222720 66 26 0.0 5.0 0.00 0.00 0.00 45 1029.7
20260501222217 67 15 2.0 2.0 0.00 0.00 0.00 45 1029.5
20260501221714 67 41 2.0 5.0 0.00 0.00 0.00 44 1030.0
20260501221211 67 22 2.0 4.0 0.00 0.00 0.00 42 1029.8
20260501220709 66 14 0.0 5.0 0.00 0.00 0.00 44 1030.2
20260501220206 68 21 2.0 3.0 0.00 0.00 0.00 43 1030.1
20260501215703 67 6 1.0 3.0 0.00 0.00 0.00 40 1030.1
20260501215158 66 56 5.0 8.0 0.00 0.00 0.00 41 1030.3
20260501214653 67 42 5.0 6.0 0.00 0.00 0.00 41 1030.5
20260501214149 68 33 0.0 7.0 0.00 0.00 0.00 41 1030.3
20260501213646 68 27 5.0 5.0 0.00 0.00 0.00 42 1030.5
20260501213142 69 106 2.0 3.0 0.00 0.00 0.00 42 1030.6
20260501212639 69 41 2.0 4.0 0.00 0.00 0.00 39 1030.4
20260501212135 69 132 2.0 2.0 0.00 0.00 0.00 39 1030.5
20260501211632 68 66 0.0 5.0 0.00 0.00 0.00 41 1030.4
20260501211130 68 59 5.0 5.0 0.00 0.00 0.00 41 1030.4
20260501210626 68 254 0.0 3.0 0.00 0.00 0.00 42 1030.3
20260501210123 67 154 0.0 4.0 0.00 0.00 0.00 40 1030.6
20260501205619 68 127 4.0 4.0 0.00 0.00 0.00 40 1030.3
20260501205117 68 80 5.0 5.0 0.00 0.00 0.00 39 1030.4
20260501204613 67 16 2.0 4.0 0.00 0.00 0.00 42 1030.4
20260501204109 68 28 6.0 6.0 0.00 0.00 0.00 40 1030.4
20260501203606 68 152 3.0 3.0 0.00 0.00 0.00 41 1030.6
20260501203104 68 344 2.0 8.0 0.00 0.00 0.00 43 1030.8
20260501202600 68 180 2.0 3.0 0.00 0.00 0.00 42 1030.7
20260501202057 69 114 3.0 3.0 0.00 0.00 0.00 38 1030.6
20260501201554 68 28 0.0 4.0 0.00 0.00 0.00 41 1030.8
20260501201050 68 165 1.0 2.0 0.00 0.00 0.00 40 1030.8
20260501200548 67 335 3.0 6.0 0.00 0.00 0.00 38 1031.1
20260501200045 68 61 2.0 6.0 0.00 0.00 0.00 40 1031.1
20260501195542 68 300 1.0 11.0 0.00 0.00 0.00 40 1031.1
20260501195038 68 12 2.0 5.0 0.00 0.00 0.00 43 1030.9
20260501194533 68 214 0.0 3.0 0.00 0.00 0.00 38 1031.1
20260501194029 68 176 2.0 4.0 0.00 0.00 0.00 42 1031.2
20260501193527 68 105 0.0 6.0 0.00 0.00 0.00 40 1031.2
20260501193026 68 1 5.0 6.0 0.00 0.00 0.00 39 1031.2
20260501192522 68 124 3.0 3.0 0.00 0.00 0.00 39 1031.2
20260501192020 68 111 5.0 5.0 0.00 0.00 0.00 37 1031.3
20260501191517 68 188 0.0 4.0 0.00 0.00 0.00 40 1031.0
20260501191014 69 15 2.0 2.0 0.00 0.00 0.00 39 1031.1
20260501190509 68 127 2.0 9.0 0.00 0.00 0.00 39 1031.2
20260501190005 69 315 2.0 3.0 0.00 0.00 0.00 38 1031.2
20260501185501 68 345 0.0 5.0 0.00 0.00 0.00 38 1031.2
20260501184957 68 16 2.0 4.0 0.00 0.00 0.00 38 1031.1
20260501184454 68 11 5.0 7.0 0.00 0.00 0.00 36 1031.2
20260501183948 68 237 2.0 11.0 0.00 0.00 0.00 35 1031.3
20260501183446 69 163 2.0 4.0 0.00 0.00 0.00 41 1031.6
20260501182942 69 270 0.0 10.0 0.00 0.00 0.00 38 1031.2
20260501182439 70 46 4.0 4.0 0.00 0.00 0.00 38 1031.3
20260501181936 70 74 1.0 5.0 0.00 0.00 0.00 38 1031.5
20260501181433 69 101 2.0 2.0 0.00 0.00 0.00 40 1031.5
20260501180930 68 297 0.0 1.0 0.00 0.00 0.00 42 1031.4
20260501180427 67 192 0.0 7.0 0.00 0.00 0.00 35 1031.5
20260501175923 67 185 2.0 4.0 0.00 0.00 0.00 42 1031.3
20260501175421 67 165 2.0 4.0 0.00 0.00 0.00 47 1031.6
20260501174917 67 201 0.0 3.0 0.00 0.00 0.00 42 1031.4
20260501174415 67 158 4.0 4.0 0.00 0.00 0.00 46 1031.4
20260501173912 66 187 0.0 3.0 0.00 0.00 0.00 50 1031.5
20260501173410 67 171 3.0 3.0 0.00 0.00 0.00 49 1031.4
20260501172905 66 154 2.0 3.0 0.00 0.00 0.00 47 1031.6
20260501172401 66 169 3.0 6.0 0.00 0.00 0.00 48 1031.6
20260501171856 66 254 1.0 3.0 0.00 0.00 0.00 40 1031.8
20260501171353 66 173 0.0 3.0 0.00 0.00 0.00 46 1031.6
20260501170850 66 334 0.0 3.0 0.00 0.00 0.00 45 1031.8
20260501170347 65 106 2.0 3.0 0.00 0.00 0.00 46 1031.9
20260501165845 65 148 3.0 4.0 0.00 0.00 0.00 53 1031.8
20260501165342 65 38 0.0 3.0 0.00 0.00 0.00 44 1031.7
20260501164839 64 190 2.0 3.0 0.00 0.00 0.00 46 1031.9
20260501164337 65 40 0.0 4.0 0.00 0.00 0.00 46 1031.9
20260501163832 64 168 3.0 3.0 0.00 0.00 0.00 51 1032.3
20260501163329 63 151 2.0 4.0 0.00 0.00 0.00 50 1032.3
20260501162827 63 187 0.0 4.0 0.00 0.00 0.00 51 1032.4
20260501162323 62 180 0.0 3.0 0.00 0.00 0.00 52 1032.4
20260501161820 62 200 0.0 2.0 0.00 0.00 0.00 53 1032.6
20260501161317 63 173 0.0 4.0 0.00 0.00 0.00 55 1032.4
20260501160813 63 144 2.0 5.0 0.00 0.00 0.00 53 1032.4
20260501160310 62 232 2.0 3.0 0.00 0.00 0.00 51 1032.5
20260501155808 61 148 3.0 4.0 0.00 0.00 0.00 61 1032.7
20260501155306 60 180 0.0 2.0 0.00 0.00 0.00 61 1032.4
20260501154801 60 186 0.0 2.0 0.00 0.00 0.00 63 1032.6
20260501154258 60 175 0.0 2.0 0.00 0.00 0.00 63 1032.6
20260501153756 59 169 0.0 3.0 0.00 0.00 0.00 64 1032.8
20260501153253 59 174 1.0 2.0 0.00 0.00 0.00 64 1032.8